Hourly Weather Baroncea

Today, 29 September, Tuesday

Time Temperature Precipitation Wind Pressure Humidity
00:00 +17°C° 0 mm 4 mps 751 mmHg 56%
01:00 +17°C° 0 mm 3 mps 751 mmHg 59%
02:00 +17°C° 0 mm 3 mps 750 mmHg 62%
03:00 +16°C° 0 mm 3 mps 750 mmHg 66%
04:00 +16°C° 0 mm 3 mps 750 mmHg 69%
05:00 +14°C° 0 mm 3 mps 749 mmHg 73%
06:00 +14°C° 0.6 mm 3 mps 749 mmHg 74%
07:00 +16°C° 0.6 mm 2 mps 749 mmHg 75%
08:00 +16°C° 0.6 mm 2 mps 748 mmHg 76%
09:00 +16°C° 2.7 mm 2 mps 748 mmHg 79%
10:00 +16°C° 2.7 mm 2 mps 748 mmHg 83%
11:00 +15°C° 2.7 mm 2 mps 747 mmHg 87%
12:00 +14°C° 7 mm 3 mps 747 mmHg 90%
13:00 +14°C° 7 mm 4 mps 746 mmHg 92%
14:00 +13°C° 7 mm 5 mps 746 mmHg 95%
15:00 +13°C° 4 mm 5 mps 745 mmHg 94%
16:00 +13°C° 4 mm 6 mps 744 mmHg 93%
17:00 +13°C° 4 mm 6 mps 744 mmHg 92%
18:00 +13°C° 4.7 mm 6 mps 744 mmHg 93%
19:00 +14°C° 4.7 mm 5 mps 743 mmHg 94%
20:00 +14°C° 4.7 mm 4 mps 743 mmHg 94%
21:00 +14°C° 0.8 mm 4 mps 742 mmHg 94%
22:00 +14°C° 0.8 mm 4 mps 742 mmHg 93%
23:00 +14°C° 0.8 mm 4 mps 741 mmHg 93%

Tomorrow, 30 September, Wednesday

Time Temperature Precipitation Wind Pressure Humidity
00:00 +14°C° 0.3 mm 4 mps 741 mmHg 93%
01:00 +15°C° 0.3 mm 4 mps 741 mmHg 94%
02:00 +15°C° 0.3 mm 4 mps 741 mmHg 94%
03:00 +14°C° 0.3 mm 4 mps 740 mmHg 95%
04:00 +14°C° 0.3 mm 4 mps 740 mmHg 95%
05:00 +14°C° 0.3 mm 4 mps 739 mmHg 95%
06:00 +14°C° 0.1 mm 4 mps 739 mmHg 94%
07:00 +14°C° 0.1 mm 4 mps 739 mmHg 92%
08:00 +14°C° 0.1 mm 4 mps 739 mmHg 91%
09:00 +15°C° 0 mm 4 mps 739 mmHg 89%
10:00 +15°C° 0 mm 5 mps 739 mmHg 87%
11:00 +15°C° 0 mm 5 mps 739 mmHg 85%
12:00 +15°C° 0 mm 6 mps 739 mmHg 85%
13:00 +14°C° 0 mm 6 mps 739 mmHg 85%
14:00 +14°C° 0 mm 6 mps 739 mmHg 84%
15:00 +14°C° 0.2 mm 6 mps 740 mmHg 83%
16:00 +14°C° 0.2 mm 6 mps 740 mmHg 82%
17:00 +14°C° 0.2 mm 6 mps 740 mmHg 81%
18:00 +13°C° 0.1 mm 6 mps 740 mmHg 83%
19:00 +13°C° 0.1 mm 6 mps 741 mmHg 85%
20:00 +12°C° 0.1 mm 5 mps 741 mmHg 88%
21:00 +11°C° 0.1 mm 6 mps 741 mmHg 88%
22:00 +11°C° 0.1 mm 6 mps 741 mmHg 88%
23:00 +13°C° 0.1 mm 6 mps 741 mmHg 88%

Day after tomorrow, 1 October, Thursday

Time Temperature Precipitation Wind Pressure Humidity
00:00 +13°C° 0.3 mm 6 mps 741 mmHg 89%
01:00 +13°C° 0.3 mm 6 mps 741 mmHg 89%
02:00 +13°C° 0.3 mm 6 mps 741 mmHg 90%
03:00 +13°C° 0.5 mm 6 mps 741 mmHg 90%
04:00 +13°C° 0.5 mm 6 mps 741 mmHg 90%
05:00 +13°C° 0.5 mm 6 mps 741 mmHg 91%
06:00 +13°C° 0.1 mm 5 mps 742 mmHg 89%
07:00 +13°C° 0.1 mm 5 mps 742 mmHg 88%
08:00 +13°C° 0.1 mm 5 mps 742 mmHg 87%
09:00 +13°C° 0.1 mm 5 mps 742 mmHg 85%
10:00 +14°C° 0.1 mm 4 mps 742 mmHg 83%
11:00 +14°C° 0.1 mm 4 mps 743 mmHg 81%
12:00 +16°C° 0.2 mm 3 mps 743 mmHg 76%
13:00 +17°C° 0.2 mm 2 mps 743 mmHg 70%
14:00 +18°C° 0.2 mm 2 mps 743 mmHg 65%
15:00 +17°C° 0.5 mm 2 mps 743 mmHg 70%
16:00 +17°C° 0.5 mm 2 mps 743 mmHg 74%
17:00 +16°C° 0.5 mm 2 mps 743 mmHg 79%
18:00 +16°C° 0.3 mm 2 mps 744 mmHg 81%
19:00 +15°C° 0.3 mm 2 mps 744 mmHg 83%
20:00 +14°C° 0.3 mm 3 mps 744 mmHg 85%
21:00 +13°C° 0 mm 3 mps 744 mmHg 87%
22:00 +13°C° 0 mm 3 mps 744 mmHg 88%
23:00 +13°C° 0 mm 3 mps 744 mmHg 90%

2 October, Friday

Time Temperature Precipitation Wind Pressure Humidity
00:00 +12°C° 0 mm 3 mps 744 mmHg 91%
01:00 +12°C° 0 mm 3 mps 745 mmHg 92%
02:00 +12°C° 0 mm 3 mps 745 mmHg 93%
03:00 +11°C° 0 mm 3 mps 745 mmHg 94%
04:00 +11°C° 0 mm 3 mps 745 mmHg 94%
05:00 +11°C° 0 mm 3 mps 745 mmHg 95%
06:00 +11°C° 0 mm 3 mps 746 mmHg 92%
07:00 +12°C° 0 mm 3 mps 746 mmHg 89%
08:00 +12°C° 0 mm 4 mps 746 mmHg 86%
09:00 +14°C° 0 mm 4 mps 746 mmHg 80%
10:00 +15°C° 0 mm 4 mps 747 mmHg 75%
11:00 +18°C° 0 mm 4 mps 747 mmHg 69%
12:00 +18°C° 0.1 mm 4 mps 747 mmHg 66%
13:00 +19°C° 0.1 mm 4 mps 747 mmHg 63%
14:00 +20°C° 0.1 mm 4 mps 747 mmHg 60%
15:00 +20°C° 0.2 mm 3 mps 747 mmHg 62%
16:00 +19°C° 0.2 mm 3 mps 747 mmHg 65%
17:00 +19°C° 0.2 mm 2 mps 747 mmHg 67%
18:00 +18°C° 0 mm 2 mps 748 mmHg 70%
19:00 +17°C° 0 mm 2 mps 748 mmHg 73%
20:00 +16°C° 0 mm 2 mps 749 mmHg 75%
21:00 +16°C° 0 mm 2 mps 749 mmHg 79%
22:00 +15°C° 0 mm 2 mps 749 mmHg 82%
23:00 +15°C° 0 mm 2 mps 749 mmHg 85%

3 October, Saturday

Time Temperature Precipitation Wind Pressure Humidity
00:00 +14°C° 0 mm 2 mps 749 mmHg 86%
01:00 +14°C° 0 mm 2 mps 749 mmHg 87%
02:00 +14°C° 0 mm 1 mps 749 mmHg 88%
03:00 +14°C° 0 mm 1 mps 749 mmHg 88%
04:00 +14°C° 0 mm 1 mps 749 mmHg 87%
05:00 +14°C° 0 mm 1 mps 749 mmHg 87%
06:00 +14°C° 0 mm 1 mps 750 mmHg 85%
07:00 +15°C° 0 mm 2 mps 750 mmHg 83%
08:00 +15°C° 0 mm 2 mps 750 mmHg 80%
09:00 +17°C° 0 mm 2 mps 750 mmHg 73%
10:00 +19°C° 0 mm 3 mps 750 mmHg 66%
11:00 +20°C° 0 mm 3 mps 750 mmHg 59%
12:00 +21°C° 0 mm 3 mps 750 mmHg 56%
13:00 +22°C° 0 mm 4 mps 749 mmHg 53%
14:00 +23°C° 0 mm 4 mps 749 mmHg 50%
15:00 +23°C° 0 mm 4 mps 749 mmHg 52%
16:00 +22°C° 0 mm 3 mps 749 mmHg 55%
17:00 +23°C° 0 mm 2 mps 748 mmHg 58%
18:00 +21°C° 0 mm 2 mps 749 mmHg 60%
19:00 +20°C° 0 mm 3 mps 749 mmHg 62%
20:00 +19°C° 0 mm 3 mps 749 mmHg 64%
21:00 +18°C° 0 mm 3 mps 749 mmHg 65%
22:00 +18°C° 0 mm 3 mps 749 mmHg 66%
23:00 +17°C° 0 mm 3 mps 749 mmHg 67%

4 October, Sunday

Time Temperature Precipitation Wind Pressure Humidity
00:00 +17°C° 0 mm 3 mps 749 mmHg 68%
01:00 +18°C° 0 mm 3 mps 749 mmHg 70%
02:00 +18°C° 0 mm 4 mps 749 mmHg 71%
03:00 +17°C° 0 mm 4 mps 749 mmHg 72%
04:00 +17°C° 0 mm 4 mps 749 mmHg 72%
05:00 +17°C° 0 mm 4 mps 749 mmHg 73%
06:00 +17°C° 0 mm 4 mps 749 mmHg 74%
07:00 +18°C° 0 mm 4 mps 749 mmHg 74%
08:00 +18°C° 0 mm 4 mps 749 mmHg 75%
09:00 +20°C° 0 mm 4 mps 749 mmHg 69%
10:00 +21°C° 0 mm 5 mps 748 mmHg 62%
11:00 +23°C° 0 mm 5 mps 748 mmHg 56%
12:00 +25°C° 0 mm 5 mps 748 mmHg 53%
13:00 +26°C° 0 mm 5 mps 748 mmHg 50%
14:00 +28°C° 0 mm 5 mps 748 mmHg 47%
15:00 +27°C° 0 mm 4 mps 748 mmHg 49%
16:00 +26°C° 0 mm 4 mps 748 mmHg 51%
17:00 +26°C° 0 mm 3 mps 747 mmHg 53%
18:00 +25°C° 0 mm 3 mps 748 mmHg 53%
19:00 +24°C° 0 mm 3 mps 748 mmHg 53%
20:00 +22°C° 0 mm 4 mps 748 mmHg 53%
21:00 +22°C° 0 mm 4 mps 748 mmHg 53%
22:00 +22°C° 0 mm 4 mps 748 mmHg 53%
23:00 +21°C° 0 mm 4 mps 748 mmHg 54%
Show more